[[{"header":{"parameterUnit":"m.s-1","parameterCategory":1,"la1":30.2991,"la2":30.254,"lo1":-89.0895,"lo2":-89.0444,"dy":0.0017,"dx":0.0017,"nx":28,"ny":28,"refTime":"2023-08-06T03:00:00:Z","depth":0,"parameterNumber":2,"parameterNumberName":"U-component_of_WINDS"},"data":[0,0,0,0,0,0,0,0,0,0,0,0,0,0,0,0,0,0,0,0,0,0,0,0,0,0,0,0,0,0,0,0,0,0,0,0,0,0,0,0,0,0,0,0,0,0,0,0,0,0,0,0,0,0,0,0,0,0,2.8072,2.8071,0,2.8033,2.8033,2.8033,2.7944,2.7942,2.794,2.7938,2.7899,2.79,2.7901,0,0,0,0,0,0,0,0,0,0,0,0,0,2.807,2.8071,2.8072,2.8071,2.8071,2.8034,2.8033,2.8032,2.7944,2.7942,2.7939,2.7937,2.7899,2.79,2.7901,0,0,0,0,0,0,0,0,0,0,0,0,0,2.8055,2.8071,2.8072,2.8022,2.8017,2.8034,2.8033,2.8032,2.7944,2.7942,2.7939,2.7936,2.7899,2.79,2.7901,2.7963,0,0,2.7904,2.7904,0,0,0,0,0,0,0,0,2.8056,2.8056,2.803,2.8026,2.802,2.799,2.8018,2.8009,2.7945,2.7972,2.7938,2.7935,2.7932,2.793,2.7929,2.7961,2.7959,2.7904,2.7905,2.7905,2.7905,0,0,0,0,0,0,0,2.8058,2.8057,2.8056,2.803,2.8024,2.8002,2.7997,2.8016,2.7968,2.7969,2.7963,2.796,2.7929,2.7928,2.7927,2.7958,2.7904,2.7905,2.7906,2.7906,2.804,2.8042,0,0,0,0,0,0,2.8066,2.8058,2.8058,2.8055,2.8032,2.8005,2.7999,2.8003,2.7968,2.7959,2.7962,2.7956,2.7928,2.7926,2.7926,2.7994,2.7905,2.7906,2.7907,2.8037,2.804,2.8043,0,0,0,0,0,0,2.8066,2.8066,2.8059,2.8055,2.8052,2.8008,2.8013,2.8004,2.8003,2.7962,2.7953,2.797,2.7926,2.7924,2.7954,2.7992,2.7907,2.7907,2.8033,2.8038,2.8042,2.8133,0,0,0,0,0,0,2.8066,2.8067,2.8089,2.8056,2.8053,2.8088,2.8015,2.8005,2.8005,2.7996,2.7967,2.796,2.7923,2.7953,2.7955,2.7991,2.7908,2.8029,2.8035,2.804,2.8126,2.814,2.8151,0,0,0,0,0,2.8066,2.8116,2.8091,2.8091,2.808,2.809,2.8088,2.8045,2.8008,2.803,2.8005,2.796,2.7989,2.7957,2.7958,2.7996,2.8027,2.8034,2.804,2.812,2.8137,2.8151,0,0,0,0,0,0,2.8154,2.8111,2.8082,2.8122,2.8111,2.8075,2.8101,2.8064,2.8063,2.8054,2.8002,2.7996,2.8033,2.8018,2.7984,2.8054,2.8001,2.8008,2.8061,2.8077,2.8089,2.809,2.7909,0,0,0,0,0,2.8178,2.819,2.8152,2.8191,2.8187,2.8146,2.8149,2.8117,2.8103,2.8097,2.8073,2.8061,2.8067,2.8072,2.8075,2.8126,2.8117,2.8153,2.8165,2.8176,2.8181,2.8206,2.8221,2.8065,2.8065,2.8065,0,0,2.8227,2.8206,2.8216,2.8208,2.8195,2.8209,2.8142,2.8159,2.8168,2.8099,2.8125,2.8109,2.8092,2.8132,2.8149,2.8121,2.8223,2.8184,2.8193,2.8192,2.8214,2.8229,2.8242,2.8069,2.8069,2.8068,0,0,2.8323,2.8309,2.8339,2.8329,2.8311,2.8283,2.8292,2.8262,2.8248,2.8274,2.8223,2.8235,2.8246,2.8236,2.8233,2.833,2.8289,2.8333,2.8397,2.8422,2.8434,2.8445,2.8477,2.849,2.834,2.834,2.834,0,2.8386,2.8404,2.836,2.838,2.8378,2.8319,2.835,2.8342,2.8326,2.8327,2.8297,2.8311,2.8296,2.8332,2.8356,2.8356,2.8363,2.8333,2.8436,2.8446,2.8455,2.8486,2.8498,2.8345,2.8345,2.8344,2.8344,0,2.8482,2.8495,2.8523,2.8509,2.8511,2.8537,2.8498,2.8505,2.8476,2.8452,2.848,2.846,2.8459,2.8466,2.8437,2.8499,2.8482,2.8446,2.839,2.8476,2.8503,2.8515,2.8353,2.8351,2.8349,2.8348,0,0,2.8626,2.859,2.8601,2.8594,2.8572,2.8581,2.8606,2.8605,2.8612,2.8605,2.8623,2.8636,2.8602,2.8599,2.8569,2.8591,2.8668,2.8551,2.855,2.8571,2.8733,2.8758,2.8772,2.8643,2.8645,2.8647,2.8734,0,2.8713,2.875,2.8714,2.8759,2.8771,2.8717,2.8739,2.8728,2.8708,2.8716,2.8694,2.8703,2.8659,2.8657,2.8677,2.8654,2.8699,2.8648,2.8657,2.8658,2.8658,2.8787,2.8813,2.8896,2.8745,2.8746,2.8748,0,2.8818,2.8816,2.8862,2.8838,2.8842,2.8862,2.8858,2.8867,2.8855,2.8839,2.8837,2.8801,2.8824,2.8774,2.8805,2.8771,2.8774,2.8764,2.8766,2.8761,2.8705,2.8782,2.8921,2.8932,2.8765,2.8763,2.8762,0,2.8915,2.8925,2.8953,2.895,2.8923,2.8938,2.8928,2.8913,2.8915,2.8914,2.8914,2.8916,2.8916,2.8918,2.8884,2.8851,2.8919,2.8866,2.8905,2.8906,2.8917,2.8916,2.9054,2.8927,2.8926,2.8926,2.8926,0,2.9014,2.9043,2.8996,2.9013,2.9046,2.9005,2.9039,2.9023,2.9011,2.9025,2.8981,2.8995,2.8951,2.8961,2.8936,2.8964,2.8965,2.8952,2.8944,2.8954,2.8955,2.8951,2.8943,2.8929,2.8929,2.8928,2.8927,0,2.9124,2.9094,2.9122,2.9096,2.909,2.9115,2.9093,2.9108,2.9088,2.9106,2.9108,2.9075,2.9085,2.9053,2.9057,2.904,2.9081,2.9066,2.9084,2.9078,2.9117,2.9113,2.9254,2.927,2.9137,2.9138,2.9139,0,2.9187,2.9208,2.9185,2.9192,2.9184,2.9195,2.9197,2.916,2.9164,2.9154,2.917,2.9177,2.9179,2.9197,2.9174,2.9177,2.9159,2.9209,2.9159,2.9168,2.9156,2.9153,2.9154,2.9218,2.9219,2.9221,2.9222,0,2.93,2.9285,2.9289,2.929,2.9295,2.9293,2.9289,2.9297,2.9258,2.9265,2.9274,2.9277,2.9282,2.9288,2.9288,2.9278,2.9243,2.9239,2.9247,2.9254,2.9263,2.9256,2.9108,2.9234,2.9233,2.9232,2.9231,2.9231,2.9385,2.9402,2.9389,2.9396,2.939,2.9388,2.9401,2.9383,2.939,2.9391,2.937,2.9384,2.9373,2.9369,2.9363,2.9373,2.935,2.9363,2.9366,2.9368,2.9374,2.9266,2.9374,2.9373,2.9373,2.9373,2.9372,0,2.9493,2.9483,2.9491,2.9487,2.9493,2.9463,2.9458,2.9464,2.9477,2.9471,2.9475,2.9486,2.9493,2.9472,2.9476,2.9489,2.9473,2.9491,2.9487,2.9485,2.9396,2.9386,2.9503,2.9503,2.9503,2.9503,2.9503,2.9503,2.955,2.9576,2.956,2.9584,2.9573,2.9586,2.9586,2.9584,2.9578,2.9593,2.9599,2.9586,2.9573,2.9577,2.9582,2.9576,2.9578,2.96,2.9588,2.9504,2.9491,2.9479,2.9469,2.9602,2.9602,2.9676,2.9677,2.9677]},{"header":{"parameterUnit":"m.s-1","parameterCategory":1,"la1":30.2991,"la2":30.254,"lo1":-89.0895,"lo2":-89.0444,"dy":0.0017,"dx":0.0017,"nx":28,"ny":28,"refTime":"2023-08-06T03:00:00:Z","depth":0,"parameterNumber":3,"parameterNumberName":"V-component_of_WINDS"},"data":[0,0,0,0,0,0,0,0,0,0,0,0,0,0,0,0,0,0,0,0,0,0,0,0,0,0,0,0,0,0,0,0,0,0,0,0,0,0,0,0,0,0,0,0,0,0,0,0,0,0,0,0,0,0,0,0,0,0,4.6693,4.6695,0,4.6847,4.6848,4.685,4.688,4.6879,4.6877,4.6876,4.7023,4.7028,4.7033,0,0,0,0,0,0,0,0,0,0,0,0,0,4.6415,4.642,4.6693,4.6695,4.6697,4.6846,4.6849,4.6851,4.688,4.6879,4.6877,4.6876,4.7021,4.7027,4.7033,0,0,0,0,0,0,0,0,0,0,0,0,0,4.6548,4.6421,4.6693,4.673,4.6735,4.6846,4.6849,4.6851,4.688,4.6878,4.6877,4.6875,4.7019,4.7027,4.7034,4.7116,0,0,4.7057,4.706,0,0,0,0,0,0,0,0,4.6541,4.6558,4.6723,4.6728,4.6733,4.6843,4.6804,4.694,4.6881,4.6825,4.6876,4.6874,4.6964,4.6976,4.7008,4.7123,4.7129,4.7058,4.7062,4.7066,4.7068,0,0,0,0,0,0,0,4.6531,4.6552,4.6754,4.6725,4.6731,4.6735,4.6752,4.683,4.6902,4.6829,4.6832,4.685,4.6966,4.7001,4.7012,4.7131,4.7058,4.7064,4.7069,4.7072,4.7317,4.7319,0,0,0,0,0,0,4.6517,4.6544,4.6749,4.6758,4.6631,4.6742,4.6761,4.6809,4.6901,4.6914,4.6852,4.6851,4.6989,4.7003,4.7017,4.7117,4.7065,4.7073,4.7077,4.7315,4.7318,4.732,0,0,0,0,0,0,4.6511,4.6535,4.6743,4.6652,4.6679,4.6749,4.6802,4.6813,4.6848,4.6918,4.693,4.6875,4.6988,4.7006,4.7091,4.7122,4.7076,4.7083,4.7313,4.7316,4.7319,4.7318,0,0,0,0,0,0,4.6503,4.6533,4.6567,4.6653,4.6684,4.6818,4.6804,4.6817,4.6862,4.6863,4.6943,4.6954,4.6988,4.708,4.7099,4.7132,4.7089,4.7311,4.7314,4.7318,4.7316,4.7321,4.7325,0,0,0,0,0,4.6493,4.6559,4.6569,4.6593,4.6729,4.6819,4.6837,4.6877,4.6864,4.6897,4.6942,4.6952,4.7116,4.7088,4.711,4.7145,4.7309,4.7313,4.7318,4.7313,4.732,4.7325,0,0,0,0,0,0,4.6472,4.6571,4.6583,4.668,4.6741,4.6824,4.6868,4.6883,4.6947,4.6944,4.6989,4.7006,4.7088,4.7125,4.7092,4.7228,4.7211,4.722,4.7201,4.7207,4.7212,4.72,4.7095,0,0,0,0,0,4.6479,4.6548,4.663,4.6707,4.6738,4.6797,4.6838,4.6865,4.6929,4.6954,4.7005,4.7064,4.7129,4.717,4.7234,4.7322,4.7337,4.7357,4.7361,4.7365,4.7371,4.7417,4.7426,4.7335,4.7335,4.7335,0,0,4.6494,4.6556,4.6597,4.6704,4.6755,4.6822,4.6819,4.689,4.6939,4.6963,4.7047,4.7086,4.7155,4.7241,4.7281,4.7274,4.74,4.7371,4.7373,4.7378,4.7423,4.7431,4.7439,4.7338,4.7338,4.7337,0,0,4.6554,4.661,4.668,4.6731,4.6809,4.6848,4.6865,4.6946,4.6974,4.706,4.7079,4.7135,4.7247,4.7295,4.7333,4.741,4.742,4.7429,4.7453,4.7498,4.7505,4.7511,4.7536,4.7545,4.7436,4.7436,4.7436,0,4.6561,4.6666,4.6712,4.6783,4.6828,4.6857,4.6925,4.6972,4.7065,4.7094,4.7086,4.7226,4.7274,4.737,4.7389,4.742,4.7437,4.742,4.7501,4.7508,4.7514,4.7538,4.7548,4.7437,4.7437,4.7437,4.7436,0,4.6669,4.6741,4.6788,4.6881,4.6931,4.7,4.7053,4.7098,4.7119,4.7158,4.7242,4.7301,4.7376,4.7402,4.7422,4.75,4.7493,4.7493,4.7476,4.7523,4.7546,4.7556,4.7437,4.7437,4.7437,4.7437,0,0,4.672,4.6838,4.6854,4.6895,4.6984,4.7038,4.7107,4.7184,4.722,4.7283,4.7338,4.7432,4.7432,4.7476,4.7502,4.7541,4.7595,4.7535,4.7538,4.7542,4.768,4.7679,4.7689,4.7603,4.7605,4.7606,4.7674,0,4.6789,4.6916,4.6959,4.7063,4.7128,4.7156,4.7216,4.7274,4.7311,4.7369,4.7409,4.7474,4.7471,4.7497,4.7537,4.758,4.7623,4.7576,4.7651,4.7653,4.7631,4.7701,4.77,4.7761,4.7683,4.7685,4.7686,0,4.6886,4.6954,4.7065,4.7144,4.7172,4.7226,4.7298,4.7355,4.7419,4.7444,4.7493,4.7516,4.7584,4.7565,4.7658,4.7625,4.7658,4.7684,4.7687,4.7693,4.7671,4.7707,4.7782,4.779,4.7701,4.77,4.7699,0,4.6909,4.7027,4.7109,4.7144,4.7238,4.7274,4.7314,4.7378,4.7421,4.7483,4.751,4.7579,4.7615,4.7666,4.7705,4.7688,4.7793,4.7778,4.7812,4.781,4.7831,4.7829,4.7909,4.7856,4.7856,4.7856,4.7856,0,4.698,4.7046,4.712,4.717,4.7243,4.7291,4.7361,4.7402,4.7459,4.7514,4.7541,4.7592,4.7642,4.7698,4.7728,4.7799,4.7815,4.7834,4.7841,4.7831,4.7828,4.7851,4.7847,4.7858,4.7858,4.7857,4.7857,0,4.7017,4.707,4.716,4.7242,4.7264,4.7315,4.7383,4.743,4.747,4.7539,4.7558,4.7618,4.7685,4.773,4.7814,4.7835,4.7911,4.7918,4.789,4.7893,4.7923,4.7918,4.802,4.8034,4.7973,4.7973,4.7974,0,4.7058,4.711,4.7198,4.7239,4.728,4.7345,4.739,4.7437,4.7482,4.7559,4.7596,4.7666,4.7724,4.7829,4.7877,4.7941,4.7949,4.798,4.7958,4.7945,4.7946,4.7942,4.7946,4.7982,4.7983,4.7983,4.7983,0,4.7124,4.7147,4.7212,4.7286,4.7339,4.7399,4.7458,4.7488,4.7545,4.7593,4.7664,4.7709,4.7797,4.7864,4.7933,4.797,4.7985,4.799,4.8001,4.799,4.797,4.7979,4.7896,4.7987,4.7987,4.7986,4.7986,4.7986,4.7162,4.7209,4.7279,4.7349,4.74,4.7454,4.7502,4.7548,4.7609,4.7687,4.771,4.7783,4.7843,4.7938,4.7976,4.8031,4.8027,4.8044,4.8047,4.805,4.8049,4.7964,4.8044,4.8044,4.8044,4.8044,4.8044,0,4.7228,4.7274,4.7339,4.7423,4.7477,4.7491,4.7556,4.76,4.7665,4.7722,4.778,4.7859,4.7924,4.7978,4.8044,4.8077,4.8086,4.8093,4.809,4.8097,4.8049,4.8032,4.8085,4.8085,4.8085,4.8085,4.8085,4.8085,4.7268,4.7347,4.7379,4.7482,4.7527,4.7601,4.7637,4.7686,4.7732,4.7821,4.7876,4.7913,4.7967,4.8038,4.8097,4.8111,4.8132,4.8138,4.8152,4.8106,4.8101,4.8096,4.8081,4.8143,4.8143,4.8196,4.8196,4.8197]}]]